Regional Weather Roundup
Issued by NWS Sioux Falls, SD

Home | Current Version | Previous Version | Text Only | Print | Product List | Glossary On
Versions: 1 2 3 4 5 6 7 8 9 10 11 12 13 14 15 16 17 18 19 20 21 22 23 24 25 26 27 28 29 30 31 32 33 34 35 36 37 38 39 40 41 42 43 44 45 46 47 48 49 50
000
ASUS43 KFSD 282110
RWRFSD

WEATHER ROUNDUP FOR SE SOUTH DAKOTA/SW MINNESOTA/NW IOWA
NATIONAL WEATHER SERVICE SIOUX FALLS SD
300 PM CST WED JAN 28 2015

NOTE: "FAIR" INDICATES FEW OR NO CLOUDS BELOW 12,000 FEET WITH NO
SIGNIFICANT WEATHER AND OR OBSTRUCTIONS TO VISIBILITY.


SDZ038>040-050-052>070-282200-
SOUTHEAST SOUTH DAKOTA

CITY           SKY/WX    TMP DP  RH WIND       PRES   REMARKS
CHAMBERLAIN    SUNNY     55  35  47 NW21G30   29.73R
HURON          MOSUNNY   46  36  68 N12       29.70R
MADISON        FAIR      41  41 100 W5        29.68R
MITCHELL       SUNNY     46  37  71 NW15      29.70S
SIOUX FALLS    PTSUNNY   45  35  68 CALM      29.67S
WINNER         FAIR      62  31  31 NW24G33   29.76R
YANKTON        MOSUNNY   54  37  54 NW16      29.66S
$$

MNZ071-072-080-081-089-090-097-098-282200-
SOUTHWEST MINNESOTA

CITY           SKY/WX    TMP DP  RH WIND       PRES   REMARKS
FAIRMONT       CLOUDY    34  28  80 S14       29.72F WCI  24
JACKSON        CLOUDY    32  32 100 SE12      29.72S FOG     WCI  23
LUVERNE        CLOUDY    37  34  87 S7        29.69S HAZE
MARSHALL       CLOUDY    34  28  80 SE7       29.74R WCI  28
MONTEVIDEO     CLOUDY    34  34 100 S8        29.75F FOG     WCI  27
PIPESTONE      CLOUDY    36  34  93 S6        29.68S FOG
REDWOOD FALLS  CLOUDY    34  31  88 SE8       29.75S FOG     WCI  27
TRACY          CLOUDY    34  32  92 S6        29.72S FOG     WCI  29
WINDOM         CLOUDY    34  30  86 S8        29.71R FOG     WCI  27
WORTHINGTON    CLOUDY    32  28  86 S12       29.70R WCI  23
$$

IAZ001>003-012>014-020>022-031-032-NEZ013-014-SDZ071-282200-
NORTHWEST IOWA

CITY           SKY/WX    TMP DP  RH WIND       PRES   REMARKS
CHEROKEE       CLOUDY    44  38  81 SE6       29.69R
DENISON        PTSUNNY   50  37  62 S15       29.63F
ESTHERVILLE    CLOUDY    32  30  92 SE13      29.72F FOG     WCI  22
LE MARS        PTSUNNY   46  37  71 S9        29.68S
ORANGE CITY    PTSUNNY   45  36  70 S3        29.68S
SHELDON        CLOUDY    37  37 100 SE8       29.68S FOG
SIOUX CITY     MOSUNNY   50  36  58 NE3       29.67F
SPENCER        CLOUDY    36  31  82 SE8       29.71S HAZE
STORM LAKE     CLOUDY    41  37  87 SE9       29.67F
$$

ABBREVIATIONS USED IN REMARKS
   TC - TEMPERATURE IN CELSIUS
  WCI - WIND CHILL INDEX
   HX - HEAT INDEX
  VSB - VISIBILITY



USA.gov is the U.S. government's official web portal to all federal, state and local government web resources and services.